FENGYUN 1C DEB, 35109

Orbit data source: Space-Track

FENGYUN 1C DEB, 35109 is space debris in SSO originally from a launch on Mon, 10 May 1999 UTC launched from the Taiyaun Space Center, China (TSC). Fengyun 1C debris stems from the Chinese weather satellite Fengyun-1C, which was intentionally destroyed by a Chinese anti-satellite missile in 2007. This event dramatically increased the amount of space debris, with thousands of trackable fragments posing hazards to satellites and human spaceflight. The Fengyun 1C debris cloud has become a focal point in discussions about space sustainability and the need for international regulations to prevent the creation of new debris.

Loading next visibility...
Identifier
35109, 1999-025DKM
Orbit
SSO
Country
Flag of CNCN / PRC
Related business
Manufacturer
Unknown
Mission
Spacecraft
Bus & Motor
Unknown
Mass
Unknown
Launch date (UTC)
1999-05-10 (27 years ago)
Launch vehicle
Unknown
Launch site
Taiyaun Space Center, China (TSC)
Object type
Payload
Rocket body
Debris
Shape & HBR
Unknown shape, 0.1 m
Radar Cross Section
Small (<0.1 m²)

Expand to show TLE details & history
Last TLE update: 1 day ago

TLE from 1 day ago
0 FENGYUN 1C DEB
1 35109U 99025DKM 26143.72799169  .00000275  00000-0  13120-3 0  9993
2 35109  98.6280 134.2140 0150969 285.3923  73.0620 14.21099338664600
Epoch: 2026-05-23T17:28Z
TLE epoch observation values (Epoch: 2026-05-23T17:28:18.482Z)
Latitude
0.00009°
Longitude
-9.20335°
Altitude
794.396 km
Speed
7.472 km/s
True Right ascension
08h 56m 51s
True Declination
0° 00' 00"
Sunlit
Object was in daylight at epoch
Visualization orbit readout
Latitude
Unknown
Longitude
Unknown
Altitude
Unknown
Speed
Unknown
Apparent Right ascension
Unknown
Apparent Declination
Unknown
Sunlit
N/A
Visualization observer readout
Local Sidereal Time
11:51:16
Azimuth
Unknown
Elevation
Unknown
Doppler factor
Unknown
Orbital elements
Apogee altitude
927.441 km
Perigee altitude
710.138 km
Semi-major axis
7,196.927 km
Eccentricity
0.0151
Inclination
98.628°
RAAN
134.214°
Arg. of periapsis
285.3923°
True anomaly
74.72584°
Mean anomaly
73.062°
Eccentric anomaly
73.89303°
Mean motion
3.55486 °/min
Orbital period
101.27 mins
BSTAR
0.0001312
Loading maneuver chart data...
Computing Atmospheric mass density...

Documentation

Showing up to 5 results
|